Regional Weather Roundup
Issued by NWS

Home | Current Version | Previous Version | Text Only | Print | Product List | Glossary Off
Versions: 1 2 3 4 5 6 7 8 9 10 11 12 13 14 15 16 17 18 19 20 21 22 23 24 25 26 27 28 29 30 31 32 33 34 35 36 37 38 39 40 41 42 43 44 45 46 47 48 49 50

000
ASUS45 KTFX 171704
RWRMT
MONTANA HOURLY WEATHER ROUNDUP
NATIONAL WEATHER SERVICE GREAT FALLS MT
1004 AM MST WED DEC 17 2014

NOTE: "FAIR" INDICATES FEW OR NO CLOUDS BELOW 12000 FEET WITH NO
SIGNIFICANT WEATHER AND/OR OBSTRUCTIONS TO VISIBILITY.

* THESE STATIONS ARE NOT UNDER NWS QUALITY CONTROL. THEY DO NOT
   REPORT WEATHER SUCH AS PRECIPITATION OR FOG.

MTZ001>007-043-171800-
WEST OF THE DIVIDE
CITY           SKY/WX    TMP DP  RH WIND       PRES   REMARKS
KALISPELL      CLOUDY    28  25  89 CALM      29.98R
MISSOULA       CLOUDY    28  23  81 S3        30.00R
BUTTE          CLOUDY    25  23  92 CALM      29.94R
MULLAN PASS    PTSUNNY   28  25  89 VRB6      29.86R WCI  21
* ANACONDA     PTCLDY    27  21  78 N/A        N/A
* ESSEX        N/A       24  21  88 W1         N/A
* LINCOLN      N/A       23  20  88 NE1        N/A
* LOOKOUT PASS N/A       23  23 100 SE2        N/A
* POLSON       N/A       28  27  96 N/A        N/A
* RONAN APT    PTSUNNY   28  27  96 N/A        N/A
* SEELEY LAKE  N/A       24  22  92 N/A        N/A
* THOMP F APT  PTCLDY    25  22  88 S3         N/A
* YAAK HILL    N/A       31  28  89 N/A        N/A
$$

MTZ008-052>055-171800-
SOUTHWEST MONTANA
CITY           SKY/WX    TMP DP  RH WIND       PRES   REMARKS
BOZEMAN        FOG       25  23  92 CALM      29.97R
DILLON         CLOUDY    28  25  89 S6        29.95R WCI  21
* W YELLOWSTON PTCLDY    26  23  88 S1         N/A
* THREE FORKS  PTSUNNY   25   3  38 N/A        N/A
* BOULDER HILL N/A       27  23  85 SW9        N/A   WCI  18
* MONIDA PASS  N/A       23  23 100 SE10       N/A   WCI  13
* RAYNOLDS PAS N/A       24   8  50 SE9        N/A   WCI  14
* WHITEHALL    N/A       27  25  92 W3         N/A
* WISE RIVER   N/A       21  17  84 W3         N/A
$$

MTZ009>010-012-014-046-048-049-054-171800-
EAST SLOPES AND CENTRAL MONTANA
CITY           SKY/WX    TMP DP  RH WIND       PRES   REMARKS
CUT BANK       FOG       18  16  92 CALM      29.88R VSB M1/4
GREAT FALLS    CLOUDY    30  27  89 SW7       29.89R WCI  23
HELENA         CLOUDY    28  25  89 CALM      29.97R
* DEARBORN     N/A       33  27  79 S8         N/A   WCI  26
* EAST GLACIER N/A       33  22  64 W17G24     N/A   WCI  22
* MONARCH      N/A       31  21  66 S4G12      N/A
* PENDROY      N/A       25  24  96 W3         N/A
* ROGERS PASS  N/A       27  22  81 NE3        N/A
* SWEET GRASS  N/A       20  20 100 S14        N/A   WCI   7
$$

MTZ011-013-016-021-035-040-045-047-050-051-171800-
NORTH CENTRAL MONTANA
CITY           SKY/WX    TMP DP  RH WIND       PRES   REMARKS
HAVRE          LGT SNOW  23  21  92 NE5       29.97R VSB 2 1/2 WCI  16
LEWISTOWN      LGT SNOW  28  25  89 E6        29.91S VSB 1 3/4 WCI  21
* N BAR RANCH  FOG       27  25  92 CALM      29.91R VSB 2 1/2
* CHESTER      N/A       23  21  92 SE4        N/A
* DENTON       N/A       26  25  96 SE3        N/A
* GEYSER       N/A       32  31  96 E2         N/A
* JUDITH GAP   N/A       26  26 100 SW2        N/A
* LOMA         N/A       26  23  88 E8         N/A   WCI  18
$$

MTZ017>020-022>027-061-062-171800-
NORTHEAST MONTANA
CITY           SKY/WX    TMP DP  RH WIND       PRES   REMARKS
GLASGOW        CLOUDY    19  16  88 SE15      30.06S WCI   5
GLENDIVE       CLOUDY    19  16  88 SE13      30.10S WCI   6
JORDAN         CLOUDY    25  19  78 SE9       30.02R WCI  16
SIDNEY         CLOUDY    19  18  96 SE10      30.16S WCI   8
WOLF POINT     CLOUDY    19  14  81 SE7       30.13S WCI  10
* BEAVER HILL  N/A       16  14  92 SE11       N/A   WCI   3
* CIRCLE       N/A       20  18  92 SE5G10     N/A   WCI  13
* LINDSAY DVD  N/A       17  15  92 SE9        N/A   WCI   6
* NAVAJO       N/A       14  12  92 SE13       N/A
* SACO         N/A       20  18  92 E12        N/A   WCI   8
$$

MTZ028>042-056>058-171800-
SOUTHCENTRAL AND SOUTHEAST MONTANA
CITY           SKY/WX    TMP DP  RH WIND       PRES   REMARKS
BAKER          CLOUDY    18  18 100 SE14      30.07R WCI   4
BILLINGS       LGT SNOW  23  21  92 SW15      29.96S VSB 2    WCI  10
LIVINGSTON     CLOUDY    36  27  70 W15       29.93S WCI  27
MILES CITY     CLOUDY    21  18  88 SE8       30.05R WCI  11
* LAUREL APT   PTSUNNY   25  18  75 SW7        N/A   WCI  17
* ROUNDUP APT  CLOUDY    27  19  72 S7         N/A   WCI  19
* ALZADA       N/A       17  15  92 E3         N/A
* HYSHAM       N/A       22  18  85 W4         N/A
* LAME DEER    N/A       21  19  92 N/A        N/A
* REED POINT   N/A       25  24  96 E1         N/A
* ROSCOE HILL  N/A       29  16  58 SE6        N/A   WCI  23
$$

REGIONAL REPORTS...DAKOTAS
CITY           SKY/WX    TMP DP  RH WIND       PRES   REMARKS
WILLISTON      LGT SNOW  18  12  77 S12       30.18S WCI   5
DICKINSON      LGT SNOW  18  12  77 S14       30.13S VSB 2    WCI   4
BEACH          CLOUDY    16  16 100 S13G20    30.10R WCI   2
CROSBY         LGT SNOW  18  16  92 S15       30.19S WCI   4
WATFORD CITY   CLOUDY    16  12  84 SE13      30.16R WCI   2
BISMARCK       HAZE      14   9  80 S7        30.30R WCI   4
GRAND FORKS    PTSUNNY    9   5  84 NW5       30.40R
FARGO          PTCLDY    10   7  88 NW7       30.39S WCI  -1
BUFFALO SD     PTSUNNY   18  16  92 SE16      30.00S WCI   3
RAPID CITY     CLOUDY    19  18  96 SE8       30.04F WCI   9
$$

REGIONAL REPORTS...WYOMING/IDAHO/WASHINGTON
CITY           SKY/WX    TMP DP  RH WIND       PRES   REMARKS
GILLETTE       SUNNY     16  12  84 CALM      29.95R
SHERIDAN       HAZE      18  12  77 CALM      29.96R VSB 1 3/4
CODY           CLOUDY    21  18  88 CALM      29.92R
YELLOWSTONE LA PTCLDY    23  19  85 CALM      29.97R
SALMON         CLOUDY    27  25  92 CALM      30.01R VSB 3
MULLAN PASS    PTSUNNY   28  25  89 VRB6      29.86S WCI  21
SAND POINT     CLOUDY    32  30  92 N3        29.97R
SPOKANE        PTSUNNY   32  30  92 NE10      29.91S WCI  24
$$

REGIONAL REPORTS...SASKATCHEWAN
CITY           SKY/WX    TMP DP  RH WIND       PRES   REMARKS
SWIFT CURRENT  FOG       18  16  92 S20G26    29.95S WCI   2

$$




USA.gov is the U.S. government's official web portal to all federal, state and local government web resources and services.